Regional Weather Roundup
Issued by NWS Midland/Odessa, TX

Skip options and go directly to product.
Home | Oldest Version | Previous Version | Current Version | All | Text Only | Save Text | Print | Product List | Glossary On

Skip product version selection by date and time.   
638
ASUS44 KMAF 030610
RWRMAF
MIDLAND AREA WEATHER ROUNDUP
NATIONAL WEATHER SERVICE MIDLAND TX
100 AM CDT MON AUG 03 2015

...IN SOUTHWEST TEXAS AND SOUTHEAST NEW MEXICO...

CITY           SKY/WX    TMP DP  RH WIND       PRES   REMARKS
ALPINE         PTCLDY    76  56  50 S6        30.12S
ANDREWS        FAIR      73  65  74 SE9       29.99F
ARTESIA        MOCLDY    79  61  53 SE9       30.00R
BIG SPRING     CLOUDY    78  62  58 S6        29.98S
CARLSBAD       LGT RAIN  83  59  44 SW6       29.99R
DRYDEN           N/A     86  59  39 S10       29.93S
FORT STOCKTON  PTCLDY    82  58  43 SE14      29.97S
GUAD PASS      CLOUDY    74  58  57 W14G21    30.16R
HOBBS            N/A    N/A N/A N/A MISG        N/A
MARFA          PTCLDY    73  57  56 E5        30.11S
MIDLAND AIRPK  MOCLDY    82  63  52 N5        29.98F
MIDLAND INTL   MOCLDY    82  63  52 NE3       29.98F
ODESSA         LGT RAIN  77  66  68 NE9       29.99F
PECOS          MOCLDY    84  56  38 SE10      29.93R
PRESIDIO       FAIR      89  56  32 MISG      29.92R
SEMINOLE       CLOUDY    74  61  62 S9        30.00F
SNYDER         PTCLDY    81  61  50 S5        29.96R
WINK           MOCLDY    80  65  59 E7        29.95R
$$
...OTHER STATIONS IN TEXAS...

CITY           SKY/WX    TMP DP  RH WIND       PRES   REMARKS
ABILENE        PTCLDY    81  61  50 SE10      29.91F
AMARILLO       TSTM      69  66  90 E10       30.09R
AUSTIN         CLEAR     79  69  71 S9        29.89S
BROWNSVILLE    PTCLDY    78  76  93 S6        29.88S
CORPUS CHRISTI PTCLDY    79  74  84 S6        29.87S
DALLAS FTW     PTCLDY    81  59  47 SE6       29.88S
DEL RIO        CLEAR     85  60  42 SE8       29.87R
EL PASO        CLOUDY    73  64  73 N14       30.04F
HOUSTON INT    CLEAR     79  70  74 CALM      29.88R
LUBBOCK        MOCLDY    77  63  61 SW6       29.99S
SAN ANGELO     CLEAR     84  60  44 S7        29.92S
SAN ANTONIO    PTCLDY    83  65  54 SE9       29.91S
WACO           CLEAR     76  61  59 CALM      29.88S
WICHITA FALLS  NOT AVBL
$$
...OTHER LOCATIONS IN NEW MEXICO...

CITY           SKY/WX    TMP DP  RH WIND       PRES   REMARKS
ALAMAGORDO     PTCLDY    75  57  53 SE15      30.08S
ALBUQUERQUE    LGT RAIN  71  58  63 W7        30.18R
CANNON AFB     CLOUDY    71  62  71 N10       30.07S
CLOVIS         CLOUDY    70  63  78 N12       30.09R
HOLLOMAN AFB   CLOUDY    77  59  53 SE10      30.05R
ROSWELL        PTCLDY    80  58  46 NE3       30.00R
RUIDOSO          N/A    N/A N/A N/A MISG        N/A
SANTA FE       CLOUDY    64  55  72 N10       30.21S
TRUTH OR CONSE PTCLDY    72  59  63 NW8       30.09R
TUCUMCARI      CLOUDY    69  64  84 CALM      30.04F
$$

USA.gov is the U.S. government's official web portal to all federal, state and local government web resources and services.